Weather History for Swainsboro, GA

Change the Weather History Date:

Sunday, March 17, 2013

  Actual Average Record
Temperature  
Mean Temperature 60 °F -  
Max Temperature 71 °F 70 °F 71 °F (2013)
Min Temperature 50 °F 42 °F 41 °F (2014)
Degree Days  
Heating Degree Days 4    
Growing Degree Days 10 (Base 50)    
Moisture  
Dew Point 54 °F    
Average Humidity 73    
Maximum Humidity 100    
Minimum Humidity 53    
Precipitation  
Precipitation 0.00 in - - ()
Sea Level Pressure  
Sea Level Pressure 30.02 in    
Wind  
Wind Speed 5 mph (WSW)    
Max Wind Speed 15 mph    
Max Gust Speed 23 mph    
Visibility 10 miles    
Events Rain    
Averages and records for this station are not official NWS values.
T = Trace of Precipitation, MM = Missing Value Source: NWS Daily Summary

Daily Weather History Graph

Daily Weather History Graph

Search for Another Location

Airport:

Trip Planner

Search our weather history database for the weather conditions in past years. The results will help you decide how hot, cold, wet, or windy it might be!

Date:

Astronomy

Mar. 17, 2013 Rise Set
Actual Time 7:36 AM EDT 7:39 PM EDT
Civil Twilight 7:12 AM EDT 8:03 PM EDT
Nautical Twilight 6:43 AM EDT 8:32 PM EDT
Astronomical Twilight 6:14 AM EDT 9:01 PM EDT
Moon 11:06 AM EDT (3/17) 12:28 AM EDT (3/17)
Length of Visible Light 12h 51m
Length of Day
12h 02m
Waxing Crescent, 31% of the Moon is Illuminated
Mar 17
Waxing Crescent
Mar 19
First Quarter
Mar 27
Full
Apr 3
Last Quarter
Apr 10
New

Hourly Weather History & Observations

Time (EDT) Temp. Dew Point Humidity Pressure Visibility Wind Dir Wind Speed Gust Speed Precip Events Conditions
12:15 AM 62.6 °F 46.4 °F 55% 30.01 in 10.0 mi WSW 5.8 mph - N/A   Clear
12:35 AM 62.6 °F 48.2 °F 59% 30.01 in 10.0 mi WSW 8.1 mph - N/A   Clear
12:55 AM 62.6 °F 48.2 °F 59% 30.01 in 10.0 mi WSW 5.8 mph - N/A   Clear
1:15 AM 62.6 °F 50.0 °F 63% 30.01 in 10.0 mi WSW 5.8 mph - N/A   Clear
1:35 AM 60.8 °F 50.0 °F 68% 30.01 in 10.0 mi WSW 5.8 mph - N/A   Clear
1:55 AM 60.8 °F 50.0 °F 68% 30.01 in 10.0 mi WSW 5.8 mph - N/A   Clear
2:15 AM 60.8 °F 50.0 °F 68% 30.01 in 10.0 mi WSW 4.6 mph - N/A   Clear
2:35 AM 60.8 °F 50.0 °F 68% 30.01 in 10.0 mi WSW 5.8 mph - N/A   Clear
2:55 AM 59.0 °F 50.0 °F 72% 30.01 in 10.0 mi West 4.6 mph - N/A   Clear
3:15 AM 59.0 °F 50.0 °F 72% 30.02 in 10.0 mi West 3.5 mph - N/A   Clear
3:35 AM 57.2 °F 50.0 °F 77% 30.02 in 10.0 mi Calm Calm - N/A   Clear
3:55 AM 57.2 °F 51.8 °F 82% 30.01 in 10.0 mi Calm Calm - N/A   Clear
4:15 AM 55.4 °F 50.0 °F 82% 30.01 in 10.0 mi Calm Calm - N/A   Clear
4:35 AM 55.4 °F 51.8 °F 88% 30.01 in 10.0 mi Calm Calm - N/A   Clear
4:55 AM 55.4 °F 50.0 °F 82% 30.01 in 10.0 mi Calm Calm - N/A   Clear
5:15 AM 53.6 °F 51.8 °F 94% 30.02 in 10.0 mi Calm Calm - N/A   Clear
5:35 AM 53.6 °F 51.8 °F 94% 30.02 in 10.0 mi Calm Calm - N/A   Clear
5:55 AM 53.6 °F 51.8 °F 94% 30.03 in 10.0 mi Calm Calm - N/A   Clear
6:15 AM 53.6 °F 51.8 °F 94% 30.03 in 10.0 mi Calm Calm - N/A   Clear
6:35 AM 51.8 °F 51.8 °F 100% 30.03 in 10.0 mi Calm Calm - N/A   Clear
6:55 AM 51.8 °F 51.8 °F 100% 30.04 in 10.0 mi Calm Calm - N/A   Clear
7:15 AM 51.8 °F 51.8 °F 100% 30.04 in 10.0 mi Calm Calm - N/A   Clear
7:35 AM 50.0 °F 50.0 °F 100% 30.05 in 10.0 mi Calm Calm - N/A   Clear
7:55 AM 50.0 °F 50.0 °F 100% 30.05 in 10.0 mi SSW 3.5 mph - N/A   Clear
8:15 AM 51.8 °F 51.8 °F 100% 30.06 in 10.0 mi Calm Calm - N/A   Clear
8:35 AM 53.6 °F 53.6 °F 100% 30.06 in 10.0 mi Calm Calm - N/A   Clear
8:55 AM 55.4 °F 53.6 °F 94% 30.07 in 10.0 mi West 3.5 mph - N/A   Clear
9:15 AM 57.2 °F 55.4 °F 94% 30.07 in 10.0 mi West 8.1 mph - N/A   Clear
9:35 AM 59.0 °F 55.4 °F 88% 30.07 in 10.0 mi SW 4.6 mph - N/A   Clear
9:55 AM 60.8 °F 55.4 °F 82% 30.07 in 10.0 mi WSW 4.6 mph - N/A   Clear
10:15 AM 62.6 °F 57.2 °F 82% 30.07 in 10.0 mi WSW 9.2 mph - N/A   Clear
10:35 AM 64.4 °F 57.2 °F 77% 30.07 in 10.0 mi West 8.1 mph 16.1 mph N/A   Clear
10:55 AM 66.2 °F 57.2 °F 73% 30.07 in 10.0 mi West 9.2 mph - N/A   Clear
11:15 AM 68.0 °F 55.4 °F 64% 30.07 in 10.0 mi WSW 10.4 mph 17.3 mph N/A   Scattered Clouds
11:35 AM 68.0 °F 55.4 °F 64% 30.06 in 10.0 mi West 11.5 mph 19.6 mph N/A   Mostly Cloudy
11:55 AM 68.0 °F 53.6 °F 60% 30.06 in 10.0 mi West 15.0 mph 20.7 mph N/A   Scattered Clouds
12:15 PM 69.8 °F 55.4 °F 60% 30.05 in 10.0 mi West 10.4 mph 20.7 mph N/A   Scattered Clouds
12:35 PM 69.8 °F 55.4 °F 60% 30.05 in 10.0 mi WSW 6.9 mph 16.1 mph N/A   Mostly Cloudy
12:55 PM 69.8 °F 55.4 °F 60% 30.04 in 10.0 mi West 9.2 mph 18.4 mph N/A   Mostly Cloudy
1:15 PM 69.8 °F 53.6 °F 56% 30.03 in 10.0 mi WNW 10.4 mph 17.3 mph N/A   Mostly Cloudy
1:35 PM 71.6 °F 53.6 °F 53% 30.03 in 10.0 mi West 15.0 mph 23.0 mph N/A   Mostly Cloudy
1:55 PM 69.8 °F 53.6 °F 56% 30.02 in 10.0 mi West 12.7 mph 18.4 mph N/A   Mostly Cloudy
2:15 PM 71.6 °F 53.6 °F 53% 30.01 in 10.0 mi West 12.7 mph 20.7 mph N/A   Mostly Cloudy
2:35 PM 69.8 °F 53.6 °F 56% 30.01 in 10.0 mi West 10.4 mph 17.3 mph N/A   Mostly Cloudy
2:55 PM 71.6 °F 53.6 °F 53% 30.00 in 10.0 mi West 11.5 mph 18.4 mph N/A   Mostly Cloudy
3:15 PM 69.8 °F 51.8 °F 53% 29.99 in 10.0 mi West 15.0 mph 21.9 mph N/A   Overcast
3:35 PM 69.8 °F 53.6 °F 56% 29.98 in 10.0 mi WSW 6.9 mph 18.4 mph N/A   Overcast
3:55 PM 69.8 °F 53.6 °F 56% 29.98 in 10.0 mi West 12.7 mph 20.7 mph N/A   Mostly Cloudy
4:15 PM 69.8 °F 53.6 °F 56% 29.97 in 10.0 mi West 6.9 mph 17.3 mph N/A   Scattered Clouds
4:35 PM 69.8 °F 53.6 °F 56% 29.97 in 10.0 mi West 9.2 mph - N/A   Clear
4:55 PM 69.8 °F 53.6 °F 56% 29.97 in 10.0 mi West 3.5 mph - N/A   Scattered Clouds
5:15 PM 69.8 °F 53.6 °F 56% 29.97 in 10.0 mi West 4.6 mph - N/A   Scattered Clouds
5:35 PM 69.8 °F 53.6 °F 56% 29.97 in 10.0 mi WSW 3.5 mph - N/A   Clear
5:55 PM 68.0 °F 53.6 °F 60% 29.98 in 10.0 mi SW 3.5 mph - N/A   Mostly Cloudy
6:15 PM 68.0 °F 53.6 °F 60% 29.98 in 10.0 mi Calm Calm - N/A   Overcast
6:35 PM 68.0 °F 55.4 °F 64% 29.99 in 10.0 mi Calm Calm - N/A   Overcast
6:55 PM 68.0 °F 55.4 °F 64% 29.98 in 10.0 mi SW 3.5 mph - N/A   Mostly Cloudy
7:15 PM 68.0 °F 55.4 °F 64% 29.99 in 10.0 mi SW 3.5 mph - N/A   Mostly Cloudy
7:35 PM 66.2 °F 55.4 °F 68% 30.00 in 10.0 mi SSW 3.5 mph - N/A Rain Light Rain
7:55 PM 66.2 °F 55.4 °F 68% 30.01 in 10.0 mi SSW 5.8 mph - N/A   Overcast
8:15 PM 64.4 °F 57.2 °F 77% 30.00 in 10.0 mi SW 3.5 mph - N/A   Drizzle
8:35 PM 64.4 °F 57.2 °F 77% 30.00 in 10.0 mi SSW 3.5 mph - N/A   Mostly Cloudy
8:55 PM 64.4 °F 57.2 °F 77% 30.01 in 10.0 mi SSW 6.9 mph - N/A   Mostly Cloudy
9:15 PM 64.4 °F 57.2 °F 77% 30.01 in 10.0 mi SW 4.6 mph - N/A   Scattered Clouds
9:35 PM 64.4 °F 57.2 °F 77% 30.02 in 10.0 mi SSW 5.8 mph - N/A   Light Drizzle
9:55 PM 62.6 °F 57.2 °F 82% 30.03 in 10.0 mi SW 3.5 mph - N/A   Overcast
10:15 PM 64.4 °F 57.2 °F 77% 30.03 in 10.0 mi WSW 3.5 mph - N/A   Mostly Cloudy
10:35 PM 62.6 °F 57.2 °F 82% 30.03 in 10.0 mi Calm Calm - N/A   Scattered Clouds
10:55 PM 62.6 °F 57.2 °F 82% 30.04 in 10.0 mi Calm Calm - N/A   Clear
11:15 PM 62.6 °F 57.2 °F 82% 30.04 in 10.0 mi Calm Calm - N/A   Scattered Clouds
11:35 PM 62.6 °F 55.4 °F 77% 30.04 in 10.0 mi Calm Calm - N/A   Scattered Clouds
11:55 PM 62.6 °F 55.4 °F 77% 30.04 in 10.0 mi Calm Calm - N/A   Clear